SCP
-0 -0 -0 -0 -0 -0 -0 -0 -0 -0 -0 -0 0 0 0 0 0 0 0 0 0 0 0 0 0 0 0 0 -0 0 0 -0 0 -0 0 -0 0 0 0 -0 -0 -0 -0 -0 0 0 0
-0 -0 -0 -0 -0 -0 -0 -0 -0 -0 0 0 0 0 0 0 0 0 0 0 0 0 0 0 0 0 0 0 -0 0 -0 -0 -0 0 -0 -0 -0 0 -0 -0 -0 -0 -0 -0 0 -0 0
-0 -0 -0 -0 -0 -0 -0 -0 -0 0 0 0 0 0 0 0 0 0 0 0 0 0 0 0 0 0 0 0 -0 0 -0 -0 -0 -0 -0 -0 -0 0 0 -0 -0 -0 -0 0 0 0 -0
-0 -0 -0 -0 -0 -0 -0 -0 -0 -0 0 0 0 0 0 0 0 0 0 -0 -0 0 0 0 0 0 0 -0 -0 -0 0 -0 -0 -0 -0 -0 -0 -0 -0 -0 0 0 0 0 0 0 0
-0 -0 -0 -0 -0 -0 -0 -0 -0 -0 -0 -0 -0 0 0 0 -0 -0 -0 -0 0 0 0 0 0 0 0 -0 0 0 0 0 0 0 -0 -0 -0 0 0 0 -0 0 0 0 0 0 -0
-0 -0 -0 -0 -0 -0 -0 -0 -0 -0 -0 -0 -0 -0 -0 -0 -0 -0 -0 0 0 0 0 0 0 -0 -0 -0 0 -0 0 0 0 0 0 0 0 -0 0 0 0 -0 -0 -0 -0 0 0
-0 -0 -0 -0 -0 -0 -0 -0 -0 -0 -0 -0 -0 -0 0 0 0 0 -0 -0 0 0 0 0 0 0 0 0 0 0 -0 0 -0 -0 -0 0 0 -0 0 0 0 0 -0 -0 -0 0 -0
-0 -0 -0 -0 -0 -0 -0 -0 -0 -0 -0 -0 -0 -0 0 0 0 0 0 0 0 0 0 -0 -0 0 0 0 0 0 0 0 0 -0 0 0 -0 0 0 -0 0 0 -0 -0 -0 0 -0
-0 -0 -0 -0 -0 -0 -0 -0 -0 -0 -0 -0 0 0 0 0 0 0 -0 0 0 0 0 0 -0 -0 -0 -0 -0 0 0 0 0 0 0 -0 0 0 -0 0 0 -0 0 -0 -0 -0 -0
-0 -0 -0 -0 -0 -0 -0 -0 -0 -0 -0 -0 0 0 0 0 0 0 0 0 0 0 0 0 0 0 -0 -0 0 0 -0 0 0 -0 0 -0 -0 -0 0 -0 -0 -0 0 0 -0 -0 0
-0 -0 -0 -0 -0 -0 -0 -0 -0 -0 -0 -0 -0 0 0 -0 0 0 0 0 0 0 -0 0 0 0 0 0 0 0 0 -0 -0 0 -0 0 0 0 0 -0 0 -0 0 -0 -0 -0 0
-0 -0 -0 -0 -0 -0 -0 -0 -0 -0 -0 -0 -0 -0 0 0 0 0 0 0 0 0 0 0 0 0 0 -0 0 0 0 -0 -0 -0 0 -0 0 0 0 0 0 0 0 0 0 0 0
-0 -0 -0 -0 -0 -0 -0 -0 -0 -0 -0 -0 -0 -0 -0 -0 0 0 0 0 0 0 0 0 0 0 -0 0 0 -0 -0 -0 0 0 0 0 0 -0 0 0 0 0 0 0 0 0 0
-0 -0 -0 -0 -0 -0 -0 -0 -0 -0 -0 -0 -0 -0 -0 0 0 0 -0 0 0 0 0 0 0 0 0 0 0 0 -0 -0 0 -0 0 0 0 0 0 -0 0 0 -0 0 0 0 0
-0 -0 -0 -0 -0 -0 -0 -0 -0 -0 -0 -0 -0 0 -0 0 0 0 -0 0 0 0 0 0 0 0 0 0 0 0 0 0 0 0 0 0 0 0 0 -0 -0 0 0 0 0 0 0
-0 -0 -0 -0 -0 -0 -0 -0 -0 -0 -0 0 -0 -0 0 0 0 -0 -0 0 0 0 0 0 0 0 0 0 0 0 0 0 0 0 0 0 0 0 0 0 0 0 0 0 0 0 0
-0 -0 -0 -0 -0 -0 -0 -0 -0 -0 -0 0 -0 -0 0 0 0 0 0 0 0 0 0 0 0 0 0 0 0 0 0 0 0 0 0 0 0 0 0 0 0 0 0 0 0 0 0
-0 -0 -0 -0 -0 -0 -0 -0 -0 -0 -0 -0 -0 -0 0 -0 -0 0 0 0 0 0 0 0 0 0 0 0 0 0 0 0 0 0 0 0 0 0 0 0 0 0 0 -0 0 0 0
-0 -0 -0 -0 -0 -0 -0 -0 -0 -0 -0 0 0 0 0 -0 0 0 0 0 0 0 0 0 0 0 0 0 0 0 0 0 0 0 0 0 0 0 0 0 0 0 0 0 0 0 0
-0 -0 -0 -0 -0 -0 -0 -0 -0 -0 -0 0 0 0 0 0 0 0 0 0 0 0 0 0 0 0 0 0 0 0 0 0 0 0 0 0 0 0 0 0 0 0 0 0 0 0 0
-0 -0 -0 -0 -0 -0 -0 -0 -0 -0 -0 0 0 0 0 0 0 0 0 0 0 0 0 0 0 0 0 0 0 0 0 0 0 0 0 0 0 0 0 0 0 0 0 0 0 0 0
-0 -0 -0 -0 -0 -0 -0 -0 -0 -0 -0 0 0 0 0 0 0 0 0 0 0 0 0 0 0 0 0 0 0 0 0 0 0 0 0 0 0 0 0 0 0 0 0 0 0 0 0
-0 -0 -0 -0 -0 -0 -0 -0 -0 -0 -0 0 0 0 0 0 0 0 0 0 0 0 0 0 0 0 0 0 0 0 0 0 0 0 0 0 0 0 0 0 0 0 0 0 0 0 0
-0 0 -0 -0 -0 -0 -0 -0 -0 -0 -0 0 0 0 0 0 0 0 0 0 0 0 0 0 0 0 0 0 0 0 0 0 0 0 0 0 0 0 0 0 0 0 0 0 0 0 0
0 0 0 0 -0 -0 -0 -0 -0 -0 -0 0 0 0 0 0 0 0 0 0 0 0 0 0 0 0 0 0 0 0 0 0 0 0 0 0 0 0 0 0 0 0 0 0 0 0 0
-0 0 0 0 -0 -0 -0 -0 -0 -0 -0 -0 0 0 0 0 0 0 0 0 0 0 0 0 0 0 0 0 0 0 0 0 0 0 0 0 0 0 0 0 0 0 0 0 0 0 0
-0 -0 -0 0 0 -0 -0 -0 -0 -0 -0 -0 0 0 -0 0 0 0 0 0 0 0 0 0 0 0 0 0 0 0 0 0 0 0 0 0 0 0 0 0 0 0 0 0 0 0 0
-0 -0 -0 -0 -0 -0 0 -0 -0 -0 -0 0 0 0 -0 0 0 0 0 0 0 0 0 0 0 0 0 0 0 0 0 0 0 0 0 0 0 0 0 0 0 0 0 0 0 0 0
-0 -0 -0 -0 -0 -0 0 0 0 0 0 0 -0 0 0 -0 0 0 0 0 0 0 0 0 0 0 0 0 0 0 0 0 0 0 0 0 0 0 0 0 0 0 0 0 0 0 0
Wind_Speed_500mb
27 26 25 24 22 21 20 18 17 14 13 11 10 9 8 7 7 7 7 6 7 7 9 11 11 11 8 9 3 10 9 14 16 12 7 5 8 11 10 9 5 20 18 11 11 12 13
29 27 26 25 24 22 21 20 19 17 15 14 12 11 9 8 8 7 6 6 7 8 9 10 12 12 7 17 11 9 9 16 16 13 6 3 8 12 9 12 12 21 21 12 11 12 13
32 29 28 27 26 24 23 22 21 20 18 16 14 12 10 9 9 8 6 6 6 8 9 10 11 11 13 9 11 10 13 15 16 12 6 2 5 12 15 8 14 18 12 7 17 14 8
33 31 30 30 29 28 27 26 24 22 20 17 16 14 11 9 8 8 6 6 5 7 9 9 8 7 12 18 21 14 15 8 17 13 6 2 5 11 12 16 13 12 6 10 19 14 5
36 34 32 32 32 31 31 30 28 25 22 20 17 14 12 10 8 7 5 4 4 6 9 9 5 5 9 13 17 19 17 8 12 9 8 4 6 13 17 17 19 8 9 14 12 13 16
37 37 36 35 35 35 34 34 32 29 25 22 18 15 12 10 8 7 4 4 4 5 7 6 7 8 10 10 13 18 22 17 11 14 11 13 14 20 15 17 12 12 20 20 18 16 21
40 40 39 39 38 38 39 38 37 33 28 24 18 15 12 11 8 8 7 6 2 4 16 6 7 4 10 4 10 18 24 21 15 18 22 13 20 24 22 9 16 18 22 23 22 9 25
43 42 42 41 41 42 43 42 40 37 31 25 19 14 12 11 9 10 12 8 5 3 7 17 19 15 8 5 13 21 27 26 23 24 14 16 29 29 2 18 18 19 22 22 20 13 23
45 44 44 44 45 46 47 46 43 38 32 26 20 14 11 10 9 13 17 14 11 2 11 9 11 13 15 15 7 21 35 33 21 23 21 26 3 11 11 18 17 24 24 19 26 30 33
46 46 46 47 49 50 51 49 44 36 32 26 14 8 8 7 5 12 11 17 13 5 10 12 11 9 15 12 13 12 34 27 14 18 21 18 22 22 25 24 23 27 1 13 25 29 24
46 48 48 49 52 54 54 51 45 35 33 21 12 2 8 15 19 16 14 11 6 9 13 9 12 10 19 17 14 14 24 28 21 11 14 8 5 11 22 23 15 24 3 21 24 29 29
46 48 49 50 53 57 58 55 47 34 29 17 11 5 13 20 23 16 9 10 7 12 7 12 11 17 26 20 11 16 18 19 14 18 20 27 13 15 19 6 14 14 24 26 28 21 24
46 48 50 51 53 57 59 58 51 35 21 15 14 10 15 28 13 10 14 10 11 10 8 14 12 20 27 21 15 21 24 27 17 18 25 20 30 35 20 24 28 21 29 20 14 18 14
47 49 49 51 52 55 58 59 53 36 16 13 15 14 22 21 16 11 10 12 10 3 4 9 8 18 15 21 14 13 19 21 18 18 18 14 12 19 10 22 13 19 19 13 16 17 17
46 49 50 49 51 53 56 57 52 38 14 10 15 18 15 12 9 7 15 12 5 4 3 3 17 22 18 18 9 16 10 2 3 10 13 6 11 6 13 21 20 16 22 15 22 22 18
45 47 50 50 50 52 55 56 51 39 14 13 18 10 6 10 7 5 12 4 4 6 7 8 9 8 13 16 18 16 15 5 6 2 14 4 15 5 3 8 23 21 17 16 20 26 28
42 45 48 50 49 50 52 55 50 39 15 11 13 6 5 9 6 14 10 7 3 6 6 6 5 9 4 7 5 5 6 12 2 4 6 8 10 18 13 20 16 13 21 20 24 18 22
40 42 45 49 50 49 50 53 51 40 18 8 6 5 13 10 14 4 9 1 2 5 2 1 2 5 2 2 5 7 6 7 4 6 8 4 13 23 30 30 14 28 32 31 21 26 22
39 40 42 44 48 49 50 50 50 42 24 6 3 7 8 2 6 10 9 8 6 3 8 2 3 7 1 3 8 8 5 8 4 5 8 9 13 19 25 30 22 26 18 24 23 25 31
39 39 40 41 44 47 50 50 48 41 25 3 4 8 8 3 2 6 5 7 8 8 8 7 4 2 7 9 2 4 10 6 4 7 5 7 25 30 27 32 26 25 27 24 25 21 29
37 38 38 39 41 44 48 49 46 39 25 8 8 6 3 6 8 2 5 1 8 7 4 3 4 1 5 9 12 14 10 11 12 7 11 12 27 26 27 31 32 36 39 40 42 37 35
35 35 36 37 38 41 45 47 46 41 22 19 7 4 2 3 1 7 7 4 8 6 6 4 6 2 5 12 11 9 12 12 15 7 14 11 17 16 29 33 37 40 43 42 43 44 48
33 33 34 36 35 37 40 43 45 44 33 18 13 10 3 4 5 9 4 2 2 4 2 4 4 9 11 6 9 17 21 27 26 19 21 22 19 16 28 17 23 27 32 31 31 35 35
30 31 33 34 33 34 36 38 41 42 40 28 26 9 7 5 5 2 4 4 4 0 7 1 6 10 8 14 26 34 35 38 36 33 30 26 18 19 21 15 27 5 7 11 17 18 15
27 29 30 31 30 30 32 35 37 38 34 30 31 11 8 1 4 6 7 4 7 8 13 11 3 5 13 16 16 14 16 15 15 15 22 27 24 19 17 22 27 32 13 10 15 2 14
25 27 27 29 29 27 27 29 33 35 33 27 29 24 6 10 8 3 3 3 9 6 9 5 2 6 9 10 10 13 9 9 7 13 9 11 19 19 14 19 22 10 9 9 6 16 16
22 24 23 27 26 24 22 23 27 31 31 28 26 25 8 7 3 3 4 6 4 5 7 2 4 6 5 7 13 14 13 5 10 10 7 17 16 25 24 26 20 15 14 7 26 7 26
22 22 23 24 25 23 20 20 24 28 30 30 19 24 14 6 9 4 3 5 5 5 8 7 10 9 7 8 6 1 10 3 11 6 11 12 11 15 11 21 30 16 5 14 27 30 38
21 21 24 24 27 17 16 16 22 27 30 32 14 28 23 4 6 10 13 13 8 2 9 5 10 3 7 5 6 5 10 7 9 16 11 10 8 12 10 10 13 31 37 25 37 48 49
Wind_Direction_500mb
32 35 33 31 27 22 14 8 4 360 355 346 335 323 317 311 301 290 279 267 253 243 234 227 226 222 218 244 213 179 179 181 185 197 223 300 316 328 35 360 339 15 360 346 331 304 293
29 29 28 27 22 16 8 2 356 351 347 340 331 325 318 305 297 289 283 268 250 238 231 223 222 221 226 236 208 182 162 166 183 183 213 284 340 347 324 4 2 335 327 334 5 336 292
30 25 25 23 18 11 4 357 351 345 340 334 328 321 312 303 297 289 283 267 245 235 221 213 217 222 240 243 209 184 160 176 183 185 211 256 314 310 331 320 347 318 319 52 27 13 324
29 22 21 19 15 8 1 354 347 340 334 329 324 317 308 297 286 278 275 267 242 225 208 205 208 218 244 238 224 189 164 168 178 193 199 248 308 300 316 308 260 303 237 357 19 350 44
28 22 20 18 14 9 1 353 346 339 332 327 321 312 300 287 277 269 264 255 249 213 194 190 190 201 226 231 220 209 197 203 173 181 186 214 291 284 271 284 276 199 331 359 356 32 330
27 23 19 16 14 8 2 355 347 340 333 326 318 307 293 279 266 260 239 200 199 199 189 193 214 224 223 179 190 187 190 171 186 172 177 231 244 256 238 260 285 338 317 326 335 349 327
24 22 18 15 11 7 2 356 348 341 335 328 316 301 284 272 249 237 202 155 146 190 208 241 147 304 130 157 172 181 181 185 201 222 228 198 251 238 259 21 304 296 293 308 327 3 329
22 22 18 15 10 7 2 357 348 342 336 329 316 296 276 263 243 227 201 200 255 124 227 227 235 247 218 140 177 180 180 199 207 229 207 236 239 254 243 266 276 274 279 291 307 323 315
20 21 19 15 12 8 4 359 351 345 340 332 314 288 261 245 230 220 205 210 197 297 251 163 203 222 211 215 217 179 189 204 214 229 225 252 258 8 247 247 244 248 266 296 318 316 293
19 17 18 15 13 10 7 2 355 350 345 340 329 282 227 194 201 189 190 207 213 247 243 130 168 165 184 193 212 185 196 196 211 251 233 261 268 245 248 249 252 260 11 293 302 311 311
14 13 14 13 11 10 8 5 1 355 351 353 354 312 172 159 153 138 185 195 210 170 207 132 126 159 170 208 122 171 186 211 228 201 238 138 202 212 236 246 246 261 70 281 299 295 300
9 9 9 10 8 8 8 7 4 2 359 8 28 88 151 155 154 162 182 168 157 226 128 128 131 167 171 192 153 143 171 207 247 248 232 270 265 263 260 272 239 291 278 273 259 271 271
6 5 4 5 5 6 7 8 6 8 21 35 40 90 140 151 161 162 147 160 217 271 160 141 137 171 188 169 143 170 180 193 211 214 221 236 235 227 230 248 236 231 260 267 246 216 280
3 2 1 1 2 3 4 8 7 10 34 61 59 106 130 151 151 144 173 228 240 109 93 137 171 167 177 171 160 156 183 209 216 266 282 280 187 165 157 232 308 213 264 295 284 277 308
359 0 360 359 360 1 2 4 8 8 28 98 93 106 124 143 157 155 236 231 76 109 30 165 163 181 152 166 223 192 220 190 37 237 260 282 233 135 220 275 250 180 227 283 288 245 262
357 358 359 359 359 360 1 1 7 7 17 147 128 105 143 143 153 195 251 45 118 3 329 207 218 270 179 160 189 219 188 126 149 320 263 36 273 152 90 243 234 259 338 244 219 265 264
355 357 359 360 0 1 1 0 2 10 19 155 158 188 184 164 144 217 231 71 95 52 334 287 178 167 148 165 284 187 121 120 146 128 249 297 261 273 240 238 282 187 226 226 279 292 288
351 353 356 359 1 2 3 2 1 6 20 156 198 193 166 152 203 242 189 42 351 22 44 116 309 22 311 178 232 234 218 33 46 318 269 46 292 273 273 297 289 274 280 283 252 255 236
349 350 353 356 360 2 5 4 2 2 11 142 192 118 185 275 227 178 140 143 26 39 51 6 115 355 342 186 250 256 186 120 34 309 360 8 266 280 262 232 207 245 233 272 278 282 267
348 350 351 353 357 0 4 5 4 1 7 105 220 182 165 191 74 305 194 173 168 49 59 42 83 202 202 207 216 246 216 159 275 307 18 291 269 265 276 302 319 285 268 253 274 270 271
349 350 352 354 356 358 1 5 8 6 9 91 14 66 355 163 162 211 248 310 221 196 107 31 146 17 296 251 245 243 252 251 230 159 247 261 267 276 278 282 282 276 272 272 271 264 268
351 352 353 355 357 359 2 7 12 17 21 53 37 340 66 91 86 229 159 178 239 166 305 176 261 221 267 267 289 299 285 263 276 208 238 225 274 273 278 273 270 275 271 266 262 266 272
352 354 356 358 360 1 4 10 16 24 40 52 32 26 334 128 193 234 128 159 150 235 137 22 342 279 245 336 311 298 285 280 274 269 272 267 271 273 275 296 290 267 260 259 274 267 272
352 355 358 1 4 7 10 14 18 24 35 43 31 27 308 120 245 23 170 224 208 96 301 262 284 275 32 313 291 269 258 258 256 255 248 252 246 272 269 280 259 10 20 310 286 280 311
349 355 360 2 4 8 13 17 22 27 31 37 33 38 360 54 5 186 206 262 255 248 260 281 257 305 313 293 280 266 231 230 224 238 245 231 243 254 248 247 273 285 265 316 310 60 29
345 352 358 0 1 4 12 17 21 27 31 37 27 28 14 310 84 62 251 266 285 265 215 217 225 301 292 278 252 254 274 2 216 177 232 212 232 242 225 268 282 65 51 346 296 240 24
336 346 353 357 356 360 7 14 17 18 20 23 17 21 23 314 52 297 305 334 302 264 283 210 311 250 247 252 259 271 267 357 257 260 186 212 227 237 248 259 260 52 328 307 248 335 341
327 334 342 346 354 353 357 6 12 12 12 16 5 8 22 300 294 251 261 249 215 267 291 64 251 186 227 251 279 141 267 112 270 306 287 269 280 264 247 274 264 45 244 307 342 319 315
316 325 333 335 339 337 347 354 2 5 6 5 356 353 348 194 286 250 246 238 220 281 302 237 339 325 358 276 223 290 241 219 305 280 136 265 262 319 269 306 310 302 298 303 301 303 302
Wind_Speed_850mb
27 26 25 24 22 21 20 18 17 14 13 11 10 9 8 7 7 7 7 6 7 7 9 11 11 11 8 9 3 10 9 14 16 12 7 5 8 11 10 9 5 20 18 11 11 12 13
29 27 26 25 24 22 21 20 19 17 15 14 12 11 9 8 8 7 6 6 7 8 9 10 12 12 7 17 11 9 9 16 16 13 6 3 8 12 9 12 12 21 21 12 11 12 13
32 29 28 27 26 24 23 22 21 20 18 16 14 12 10 9 9 8 6 6 6 8 9 10 11 11 13 9 11 10 13 15 16 12 6 2 5 12 15 8 14 18 12 7 17 14 8
33 31 30 30 29 28 27 26 24 22 20 17 16 14 11 9 8 8 6 6 5 7 9 9 8 7 12 18 21 14 15 8 17 13 6 2 5 11 12 16 13 12 6 10 19 14 5
36 34 32 32 32 31 31 30 28 25 22 20 17 14 12 10 8 7 5 4 4 6 9 9 5 5 9 13 17 19 17 8 12 9 8 4 6 13 17 17 19 8 9 14 12 13 16
37 37 36 35 35 35 34 34 32 29 25 22 18 15 12 10 8 7 4 4 4 5 7 6 7 8 10 10 13 18 22 17 11 14 11 13 14 20 15 17 12 12 20 20 18 16 21
40 40 39 39 38 38 39 38 37 33 28 24 18 15 12 11 8 8 7 6 2 4 16 6 7 4 10 4 10 18 24 21 15 18 22 13 20 24 22 9 16 18 22 23 22 9 25
43 42 42 41 41 42 43 42 40 37 31 25 19 14 12 11 9 10 12 8 5 3 7 17 19 15 8 5 13 21 27 26 23 24 14 16 29 29 2 18 18 19 22 22 20 13 23
45 44 44 44 45 46 47 46 43 38 32 26 20 14 11 10 9 13 17 14 11 2 11 9 11 13 15 15 7 21 35 33 21 23 21 26 3 11 11 18 17 24 24 19 26 30 33
46 46 46 47 49 50 51 49 44 36 32 26 14 8 8 7 5 12 11 17 13 5 10 12 11 9 15 12 13 12 34 27 14 18 21 18 22 22 25 24 23 27 1 13 25 29 24
46 48 48 49 52 54 54 51 45 35 33 21 12 2 8 15 19 16 14 11 6 9 13 9 12 10 19 17 14 14 24 28 21 11 14 8 5 11 22 23 15 24 3 21 24 29 29
46 48 49 50 53 57 58 55 47 34 29 17 11 5 13 20 23 16 9 10 7 12 7 12 11 17 26 20 11 16 18 19 14 18 20 27 13 15 19 6 14 14 24 26 28 21 24
46 48 50 51 53 57 59 58 51 35 21 15 14 10 15 28 13 10 14 10 11 10 8 14 12 20 27 21 15 21 24 27 17 18 25 20 30 35 20 24 28 21 29 20 14 18 14
47 49 49 51 52 55 58 59 53 36 16 13 15 14 22 21 16 11 10 12 10 3 4 9 8 18 15 21 14 13 19 21 18 18 18 14 12 19 10 22 13 19 19 13 16 17 17
46 49 50 49 51 53 56 57 52 38 14 10 15 18 15 12 9 7 15 12 5 4 3 3 17 22 18 18 9 16 10 2 3 10 13 6 11 6 13 21 20 16 22 15 22 22 18
45 47 50 50 50 52 55 56 51 39 14 13 18 10 6 10 7 5 12 4 4 6 7 8 9 8 13 16 18 16 15 5 6 2 14 4 15 5 3 8 23 21 17 16 20 26 28
42 45 48 50 49 50 52 55 50 39 15 11 13 6 5 9 6 14 10 7 3 6 6 6 5 9 4 7 5 5 6 12 2 4 6 8 10 18 13 20 16 13 21 20 24 18 22
40 42 45 49 50 49 50 53 51 40 18 8 6 5 13 10 14 4 9 1 2 5 2 1 2 5 2 2 5 7 6 7 4 6 8 4 13 23 30 30 14 28 32 31 21 26 22
39 40 42 44 48 49 50 50 50 42 24 6 3 7 8 2 6 10 9 8 6 3 8 2 3 7 1 3 8 8 5 8 4 5 8 9 13 19 25 30 22 26 18 24 23 25 31
39 39 40 41 44 47 50 50 48 41 25 3 4 8 8 3 2 6 5 7 8 8 8 7 4 2 7 9 2 4 10 6 4 7 5 7 25 30 27 32 26 25 27 24 25 21 29
37 38 38 39 41 44 48 49 46 39 25 8 8 6 3 6 8 2 5 1 8 7 4 3 4 1 5 9 12 14 10 11 12 7 11 12 27 26 27 31 32 36 39 40 42 37 35
35 35 36 37 38 41 45 47 46 41 22 19 7 4 2 3 1 7 7 4 8 6 6 4 6 2 5 12 11 9 12 12 15 7 14 11 17 16 29 33 37 40 43 42 43 44 48
33 33 34 36 35 37 40 43 45 44 33 18 13 10 3 4 5 9 4 2 2 4 2 4 4 9 11 6 9 17 21 27 26 19 21 22 19 16 28 17 23 27 32 31 31 35 35
30 31 33 34 33 34 36 38 41 42 40 28 26 9 7 5 5 2 4 4 4 0 7 1 6 10 8 14 26 34 35 38 36 33 30 26 18 19 21 15 27 5 7 11 17 18 15
27 29 30 31 30 30 32 35 37 38 34 30 31 11 8 1 4 6 7 4 7 8 13 11 3 5 13 16 16 14 16 15 15 15 22 27 24 19 17 22 27 32 13 10 15 2 14
25 27 27 29 29 27 27 29 33 35 33 27 29 24 6 10 8 3 3 3 9 6 9 5 2 6 9 10 10 13 9 9 7 13 9 11 19 19 14 19 22 10 9 9 6 16 16
22 24 23 27 26 24 22 23 27 31 31 28 26 25 8 7 3 3 4 6 4 5 7 2 4 6 5 7 13 14 13 5 10 10 7 17 16 25 24 26 20 15 14 7 26 7 26
22 22 23 24 25 23 20 20 24 28 30 30 19 24 14 6 9 4 3 5 5 5 8 7 10 9 7 8 6 1 10 3 11 6 11 12 11 15 11 21 30 16 5 14 27 30 38
21 21 24 24 27 17 16 16 22 27 30 32 14 28 23 4 6 10 13 13 8 2 9 5 10 3 7 5 6 5 10 7 9 16 11 10 8 12 10 10 13 31 37 25 37 48 49
Wind_Direction_850mb
32 35 33 31 27 22 14 8 4 360 355 346 335 323 317 311 301 290 279 267 253 243 234 227 226 222 218 244 213 179 179 181 185 197 223 300 316 328 35 360 339 15 360 346 331 304 293
29 29 28 27 22 16 8 2 356 351 347 340 331 325 318 305 297 289 283 268 250 238 231 223 222 221 226 236 208 182 162 166 183 183 213 284 340 347 324 4 2 335 327 334 5 336 292
30 25 25 23 18 11 4 357 351 345 340 334 328 321 312 303 297 289 283 267 245 235 221 213 217 222 240 243 209 184 160 176 183 185 211 256 314 310 331 320 347 318 319 52 27 13 324
29 22 21 19 15 8 1 354 347 340 334 329 324 317 308 297 286 278 275 267 242 225 208 205 208 218 244 238 224 189 164 168 178 193 199 248 308 300 316 308 260 303 237 357 19 350 44
28 22 20 18 14 9 1 353 346 339 332 327 321 312 300 287 277 269 264 255 249 213 194 190 190 201 226 231 220 209 197 203 173 181 186 214 291 284 271 284 276 199 331 359 356 32 330
27 23 19 16 14 8 2 355 347 340 333 326 318 307 293 279 266 260 239 200 199 199 189 193 214 224 223 179 190 187 190 171 186 172 177 231 244 256 238 260 285 338 317 326 335 349 327
24 22 18 15 11 7 2 356 348 341 335 328 316 301 284 272 249 237 202 155 146 190 208 241 147 304 130 157 172 181 181 185 201 222 228 198 251 238 259 21 304 296 293 308 327 3 329
22 22 18 15 10 7 2 357 348 342 336 329 316 296 276 263 243 227 201 200 255 124 227 227 235 247 218 140 177 180 180 199 207 229 207 236 239 254 243 266 276 274 279 291 307 323 315
20 21 19 15 12 8 4 359 351 345 340 332 314 288 261 245 230 220 205 210 197 297 251 163 203 222 211 215 217 179 189 204 214 229 225 252 258 8 247 247 244 248 266 296 318 316 293
19 17 18 15 13 10 7 2 355 350 345 340 329 282 227 194 201 189 190 207 213 247 243 130 168 165 184 193 212 185 196 196 211 251 233 261 268 245 248 249 252 260 11 293 302 311 311
14 13 14 13 11 10 8 5 1 355 351 353 354 312 172 159 153 138 185 195 210 170 207 132 126 159 170 208 122 171 186 211 228 201 238 138 202 212 236 246 246 261 70 281 299 295 300
9 9 9 10 8 8 8 7 4 2 359 8 28 88 151 155 154 162 182 168 157 226 128 128 131 167 171 192 153 143 171 207 247 248 232 270 265 263 260 272 239 291 278 273 259 271 271
6 5 4 5 5 6 7 8 6 8 21 35 40 90 140 151 161 162 147 160 217 271 160 141 137 171 188 169 143 170 180 193 211 214 221 236 235 227 230 248 236 231 260 267 246 216 280
3 2 1 1 2 3 4 8 7 10 34 61 59 106 130 151 151 144 173 228 240 109 93 137 171 167 177 171 160 156 183 209 216 266 282 280 187 165 157 232 308 213 264 295 284 277 308
359 0 360 359 360 1 2 4 8 8 28 98 93 106 124 143 157 155 236 231 76 109 30 165 163 181 152 166 223 192 220 190 37 237 260 282 233 135 220 275 250 180 227 283 288 245 262
357 358 359 359 359 360 1 1 7 7 17 147 128 105 143 143 153 195 251 45 118 3 329 207 218 270 179 160 189 219 188 126 149 320 263 36 273 152 90 243 234 259 338 244 219 265 264
355 357 359 360 0 1 1 0 2 10 19 155 158 188 184 164 144 217 231 71 95 52 334 287 178 167 148 165 284 187 121 120 146 128 249 297 261 273 240 238 282 187 226 226 279 292 288
351 353 356 359 1 2 3 2 1 6 20 156 198 193 166 152 203 242 189 42 351 22 44 116 309 22 311 178 232 234 218 33 46 318 269 46 292 273 273 297 289 274 280 283 252 255 236
349 350 353 356 360 2 5 4 2 2 11 142 192 118 185 275 227 178 140 143 26 39 51 6 115 355 342 186 250 256 186 120 34 309 360 8 266 280 262 232 207 245 233 272 278 282 267
348 350 351 353 357 0 4 5 4 1 7 105 220 182 165 191 74 305 194 173 168 49 59 42 83 202 202 207 216 246 216 159 275 307 18 291 269 265 276 302 319 285 268 253 274 270 271
349 350 352 354 356 358 1 5 8 6 9 91 14 66 355 163 162 211 248 310 221 196 107 31 146 17 296 251 245 243 252 251 230 159 247 261 267 276 278 282 282 276 272 272 271 264 268
351 352 353 355 357 359 2 7 12 17 21 53 37 340 66 91 86 229 159 178 239 166 305 176 261 221 267 267 289 299 285 263 276 208 238 225 274 273 278 273 270 275 271 266 262 266 272
352 354 356 358 360 1 4 10 16 24 40 52 32 26 334 128 193 234 128 159 150 235 137 22 342 279 245 336 311 298 285 280 274 269 272 267 271 273 275 296 290 267 260 259 274 267 272
352 355 358 1 4 7 10 14 18 24 35 43 31 27 308 120 245 23 170 224 208 96 301 262 284 275 32 313 291 269 258 258 256 255 248 252 246 272 269 280 259 10 20 310 286 280 311
349 355 360 2 4 8 13 17 22 27 31 37 33 38 360 54 5 186 206 262 255 248 260 281 257 305 313 293 280 266 231 230 224 238 245 231 243 254 248 247 273 285 265 316 310 60 29
345 352 358 0 1 4 12 17 21 27 31 37 27 28 14 310 84 62 251 266 285 265 215 217 225 301 292 278 252 254 274 2 216 177 232 212 232 242 225 268 282 65 51 346 296 240 24
336 346 353 357 356 360 7 14 17 18 20 23 17 21 23 314 52 297 305 334 302 264 283 210 311 250 247 252 259 271 267 357 257 260 186 212 227 237 248 259 260 52 328 307 248 335 341
327 334 342 346 354 353 357 6 12 12 12 16 5 8 22 300 294 251 261 249 215 267 291 64 251 186 227 251 279 141 267 112 270 306 287 269 280 264 247 274 264 45 244 307 342 319 315
316 325 333 335 339 337 347 354 2 5 6 5 356 353 348 194 286 250 246 238 220 281 302 237 339 325 358 276 223 290 241 219 305 280 136 265 262 319 269 306 310 302 298 303 301 303 302